Tracking 31027 objects as of 19-Jul-2025
HD Live streaming from Space Station
objects crossing your sky now

DELTA 1 DEB

Track DELTA 1 DEB now!
10-day predictions


NORAD ID: 21317
Int'l Code: 1975-052AK
Perigee: 961.8 km
Apogee: 1,292.4 km
Inclination: 100.1 °
Period: 107.7 minutes
Semi major axis: 7498 km
RCS: 0.0147 m2 (small)
Launch date: June 12, 1975
Source: United States (US)
Launch site: AIR FORCE WESTERN TEST RANGE (AFWTR)

Note: This is SATELLITE DEBRIS
Your satellite tracking list
COSMOS 2502
Track 1 satellite(s)




NASA's NSSDC Master Catalog

Two Line Element Set (TLE):
1 21317U 75052AK  25199.49703484  .00001103  00000-0  19153-2 0  9994
2 21317 100.0959 134.8541 0220469  44.0419  24.0710 13.37141150635847
Source of the keplerian elements: AFSPC